| time (UTC) | temp F | wind direction | speed MPH | gust MPH | rain 1hr in | rain 24hr in | rain mn in | humidity % | barometer mb |
| 20260504185507 | 77 | 221 | 3.0 | 5.0 | 0.00 | 0.00 | 0.00 | 31 | 1013.6 |
| 20260504185003 | 77 | 240 | 8.0 | 10.0 | 0.00 | 0.00 | 0.00 | 31 | 1013.6 |
| 20260504184459 | 77 | 220 | 8.0 | 13.0 | 0.00 | 0.00 | 0.00 | 31 | 1013.6 |
| 20260504183954 | 77 | 304 | 3.0 | 5.0 | 0.00 | 0.00 | 0.00 | 30 | 1013.6 |
| 20260504183452 | 77 | 196 | 4.0 | 5.0 | 0.00 | 0.00 | 0.00 | 30 | 1013.9 |
| 20260504182950 | 77 | 177 | 2.0 | 5.0 | 0.00 | 0.00 | 0.00 | 30 | 1013.9 |
| 20260504182446 | 77 | 200 | 8.0 | 10.0 | 0.00 | 0.00 | 0.00 | 29 | 1013.9 |
| 20260504181944 | 77 | 218 | 3.0 | 5.0 | 0.00 | 0.00 | 0.00 | 30 | 1013.9 |
| 20260504181441 | 77 | 258 | 6.0 | 8.0 | 0.00 | 0.00 | 0.00 | 31 | 1014.3 |
| 20260504180939 | 77 | 210 | 8.0 | 10.0 | 0.00 | 0.00 | 0.00 | 32 | 1014.3 |
| 20260504180438 | 77 | 187 | 0.0 | 0.0 | 0.00 | 0.00 | 0.00 | 32 | 1014.3 |
| 20260504175936 | 76 | 185 | 4.0 | 5.0 | 0.00 | 0.00 | 0.00 | 31 | 1014.3 |
| 20260504175432 | 76 | 209 | 6.0 | 8.0 | 0.00 | 0.00 | 0.00 | 32 | 1014.3 |
| 20260504174930 | 76 | 209 | 3.0 | 5.0 | 0.00 | 0.00 | 0.00 | 34 | 1014.6 |
| 20260504174427 | 76 | 208 | 0.0 | 0.0 | 0.00 | 0.00 | 0.00 | 32 | 1014.3 |
| 20260504173925 | 76 | 235 | 1.0 | 2.0 | 0.00 | 0.00 | 0.00 | 32 | 1014.3 |
| 20260504173421 | 76 | 206 | 4.0 | 8.0 | 0.00 | 0.00 | 0.00 | 33 | 1014.3 |
| 20260504172919 | 76 | 195 | 2.0 | 5.0 | 0.00 | 0.00 | 0.00 | 32 | 1014.6 |
| 20260504172414 | 75 | 194 | 1.0 | 2.0 | 0.00 | 0.00 | 0.00 | 32 | 1014.3 |
| 20260504171911 | 75 | 103 | 1.0 | 2.0 | 0.00 | 0.00 | 0.00 | 32 | 1014.6 |
| 20260504171408 | 75 | 217 | 5.0 | 8.0 | 0.00 | 0.00 | 0.00 | 33 | 1014.6 |
| 20260504170905 | 75 | 201 | 2.0 | 2.0 | 0.00 | 0.00 | 0.00 | 31 | 1014.6 |
| 20260504170401 | 75 | 217 | 2.0 | 2.0 | 0.00 | 0.00 | 0.00 | 33 | 1014.6 |
| 20260504160320 | 74 | 213 | 7.0 | 10.0 | 0.00 | 0.00 | 0.00 | 32 | 1015.3 |
| 20260504150745 | 72 | 236 | 0.0 | 0.0 | 0.00 | 0.00 | 0.00 | 37 | 1015.3 |
| 20260504150242 | 72 | 235 | 0.0 | 0.0 | 0.00 | 0.00 | 0.00 | 40 | 1015.3 |
| 20260504141211 | 69 | 229 | 0.0 | 0.0 | 0.00 | 0.00 | 0.00 | 53 | 1015.3 |
| 20260504140708 | 70 | 192 | 0.0 | 0.0 | 0.00 | 0.00 | 0.00 | 53 | 1015.3 |
| 20260504140203 | 70 | 191 | 0.0 | 0.0 | 0.00 | 0.00 | 0.00 | 53 | 1015.3 |
| 20260504130632 | 62 | 143 | 0.0 | 0.0 | 0.00 | 0.00 | 0.00 | 61 | 1015.3 |
| 20260504130129 | 61 | 139 | 0.0 | 0.0 | 0.00 | 0.00 | 0.00 | 62 | 1015.3 |
| 20260504110520 | 51 | 198 | 0.0 | 0.0 | 0.00 | 0.00 | 0.00 | 73 | 1014.6 |
| 20260504100442 | 52 | 198 | 0.0 | 0.0 | 0.00 | 0.00 | 0.00 | 71 | 1014.6 |
| 20260504081841 | 53 | 200 | 0.0 | 0.0 | 0.00 | 0.00 | 0.00 | 67 | 1014.9 |
| 20260504081338 | 53 | 199 | 0.0 | 0.0 | 0.00 | 0.00 | 0.00 | 67 | 1014.9 |
| 20260504080833 | 53 | 184 | 0.0 | 0.0 | 0.00 | 0.00 | 0.00 | 67 | 1014.9 |
| 20260504080331 | 53 | 181 | 0.0 | 0.0 | 0.00 | 0.00 | 0.00 | 67 | 1014.9 |
| 20260504070258 | 54 | 214 | 0.0 | 0.0 | 0.00 | 0.00 | 0.00 | 66 | 1015.3 |
| 20260504060218 | 55 | 217 | 0.0 | 0.0 | 0.00 | 0.00 | 0.00 | 65 | 1015.6 |
| 20260504050646 | 56 | 202 | 0.0 | 0.0 | 0.00 | 0.00 | 0.00 | 64 | 1015.9 |
| 20260504050143 | 56 | 199 | 0.0 | 0.0 | 0.00 | 0.00 | 0.00 | 64 | 1015.9 |
| 20260504045640 | 56 | 198 | 0.0 | 0.0 | 0.00 | 0.00 | 0.00 | 64 | 1015.9 |
| 20260504045140 | 56 | 199 | 0.0 | 0.0 | 0.00 | 0.00 | 0.00 | 64 | 1015.9 |
| 20260504044638 | 56 | 203 | 0.0 | 0.0 | 0.00 | 0.00 | 0.00 | 63 | 1015.9 |
| 20260504044135 | 57 | 201 | 0.0 | 0.0 | 0.00 | 0.00 | 0.00 | 63 | 1015.9 |
| 20260504043632 | 57 | 200 | 0.0 | 0.0 | 0.00 | 0.00 | 0.00 | 63 | 1016.3 |
| 20260504043129 | 57 | 200 | 0.0 | 0.0 | 0.00 | 0.00 | 0.00 | 63 | 1016.3 |
| 20260504042626 | 57 | 200 | 0.0 | 0.0 | 0.00 | 0.00 | 0.00 | 63 | 1016.3 |
| 20260504042123 | 57 | 202 | 0.0 | 0.0 | 0.00 | 0.00 | 0.00 | 63 | 1016.3 |
| 20260504041619 | 57 | 200 | 0.0 | 0.0 | 0.00 | 0.00 | 0.00 | 63 | 1015.9 |
| 20260504041115 | 57 | 200 | 0.0 | 0.0 | 0.00 | 0.00 | 0.00 | 63 | 1016.3 |
| 20260504040613 | 57 | 200 | 0.0 | 0.0 | 0.00 | 0.00 | 0.00 | 63 | 1016.3 |
| 20260504040109 | 57 | 200 | 0.0 | 0.0 | 0.00 | 0.00 | 0.00 | 63 | 1016.3 |
| 20260504035606 | 58 | 201 | 0.0 | 0.0 | 0.00 | 0.00 | 0.00 | 63 | 1016.3 |
| 20260504035102 | 58 | 200 | 0.0 | 0.0 | 0.00 | 0.00 | 0.00 | 63 | 1016.3 |
| 20260504034600 | 58 | 200 | 0.0 | 0.0 | 0.00 | 0.00 | 0.00 | 63 | 1016.3 |
| 20260504034057 | 58 | 201 | 0.0 | 0.0 | 0.00 | 0.00 | 0.00 | 63 | 1016.3 |
| 20260504033555 | 58 | 201 | 0.0 | 0.0 | 0.00 | 0.00 | 0.00 | 63 | 1016.3 |
| 20260504033052 | 59 | 201 | 0.0 | 0.0 | 0.00 | 0.00 | 0.00 | 63 | 1016.6 |
| 20260504032549 | 59 | 202 | 0.0 | 0.0 | 0.00 | 0.00 | 0.00 | 63 | 1016.6 |
| 20260504032046 | 59 | 202 | 0.0 | 0.0 | 0.00 | 0.00 | 0.00 | 62 | 1016.6 |
| 20260504031542 | 59 | 202 | 0.0 | 0.0 | 0.00 | 0.00 | 0.00 | 62 | 1016.6 |
| 20260504031038 | 59 | 188 | 0.0 | 0.0 | 0.00 | 0.00 | 0.00 | 62 | 1016.6 |
| 20260504030536 | 59 | 188 | 0.0 | 0.0 | 0.00 | 0.00 | 0.00 | 62 | 1016.6 |
| 20260504030032 | 59 | 188 | 0.0 | 0.0 | 0.00 | 0.00 | 0.00 | 62 | 1016.6 |
| 20260504025530 | 59 | 186 | 0.0 | 0.0 | 0.00 | 0.00 | 0.00 | 62 | 1016.6 |
| 20260504025026 | 60 | 186 | 0.0 | 0.0 | 0.00 | 0.00 | 0.00 | 62 | 1016.6 |
| 20260504024523 | 60 | 186 | 0.0 | 0.0 | 0.00 | 0.00 | 0.00 | 62 | 1016.6 |
| 20260504024020 | 60 | 180 | 0.0 | 0.0 | 0.00 | 0.00 | 0.00 | 62 | 1016.6 |
| 20260504023517 | 61 | 180 | 0.0 | 0.0 | 0.00 | 0.00 | 0.00 | 62 | 1016.6 |
| 20260504023012 | 61 | 180 | 0.0 | 0.0 | 0.00 | 0.00 | 0.00 | 62 | 1016.3 |
| 20260504022508 | 61 | 181 | 0.0 | 0.0 | 0.00 | 0.00 | 0.00 | 62 | 1016.3 |
| 20260504022005 | 61 | 183 | 0.0 | 0.0 | 0.00 | 0.00 | 0.00 | 61 | 1016.3 |
| 20260504021503 | 62 | 183 | 0.0 | 0.0 | 0.00 | 0.00 | 0.00 | 61 | 1016.3 |
| 20260504021000 | 62 | 179 | 0.0 | 0.0 | 0.00 | 0.00 | 0.00 | 61 | 1016.3 |
| 20260504020456 | 62 | 188 | 0.0 | 0.0 | 0.00 | 0.00 | 0.00 | 60 | 1015.9 |
| 20260504015953 | 63 | 188 | 0.0 | 0.0 | 0.00 | 0.00 | 0.00 | 60 | 1015.9 |
| 20260504015449 | 63 | 187 | 0.0 | 0.0 | 0.00 | 0.00 | 0.00 | 60 | 1015.9 |
| 20260504014945 | 64 | 187 | 0.0 | 0.0 | 0.00 | 0.00 | 0.00 | 59 | 1015.9 |
| 20260504014441 | 64 | 183 | 0.0 | 0.0 | 0.00 | 0.00 | 0.00 | 59 | 1015.9 |
| 20260504013938 | 64 | 178 | 0.0 | 0.0 | 0.00 | 0.00 | 0.00 | 59 | 1015.6 |
| 20260504013437 | 65 | 211 | 0.0 | 0.0 | 0.00 | 0.00 | 0.00 | 58 | 1015.6 |
| 20260504012932 | 65 | 176 | 0.0 | 0.0 | 0.00 | 0.00 | 0.00 | 57 | 1015.6 |
| 20260504012431 | 66 | 176 | 0.0 | 0.0 | 0.00 | 0.00 | 0.00 | 56 | 1015.6 |
| 20260504011928 | 66 | 208 | 0.0 | 0.0 | 0.00 | 0.00 | 0.00 | 55 | 1015.6 |
| 20260504011425 | 67 | 208 | 0.0 | 0.0 | 0.00 | 0.00 | 0.00 | 54 | 1015.9 |
| 20260504010920 | 68 | 208 | 0.0 | 0.0 | 0.00 | 0.00 | 0.00 | 55 | 1015.6 |
| 20260504010417 | 68 | 208 | 0.0 | 0.0 | 0.00 | 0.00 | 0.00 | 54 | 1015.6 |
| 20260504005913 | 69 | 208 | 0.0 | 0.0 | 0.00 | 0.00 | 0.00 | 54 | 1015.6 |
| 20260504005409 | 69 | 209 | 0.0 | 0.0 | 0.00 | 0.00 | 0.00 | 52 | 1015.3 |
| 20260504004908 | 70 | 208 | 0.0 | 0.0 | 0.00 | 0.00 | 0.00 | 49 | 1015.6 |
| 20260504004405 | 71 | 208 | 0.0 | 0.0 | 0.00 | 0.00 | 0.00 | 48 | 1015.3 |
| 20260504003901 | 71 | 208 | 0.0 | 0.0 | 0.00 | 0.00 | 0.00 | 47 | 1015.3 |
| 20260504003358 | 72 | 208 | 0.0 | 0.0 | 0.00 | 0.00 | 0.00 | 45 | 1015.3 |
| 20260504002855 | 73 | 209 | 0.0 | 0.0 | 0.00 | 0.00 | 0.00 | 43 | 1015.6 |
| 20260504002351 | 73 | 209 | 0.0 | 0.0 | 0.00 | 0.00 | 0.00 | 41 | 1015.3 |
| 20260504001849 | 74 | 184 | 0.0 | 0.0 | 0.00 | 0.00 | 0.00 | 40 | 1015.3 |
| 20260504001346 | 74 | 207 | 0.0 | 0.0 | 0.00 | 0.00 | 0.00 | 39 | 1015.3 |
| 20260504000843 | 75 | 215 | 0.0 | 0.0 | 0.00 | 0.00 | 0.00 | 37 | 1015.6 |
| 20260504000340 | 75 | 205 | 0.0 | 0.0 | 0.00 | 0.00 | 0.00 | 35 | 1015.3 |
| 20260503235838 | 76 | 211 | 0.0 | 0.0 | 0.00 | 0.00 | 0.00 | 33 | 1015.6 |
| 20260503235335 | 77 | 235 | 0.0 | 0.0 | 0.00 | 0.00 | 0.00 | 30 | 1015.6 |
| 20260503234832 | 77 | 212 | 0.0 | 0.0 | 0.00 | 0.00 | 0.00 | 31 | 1015.3 |
| 20260503234330 | 78 | 220 | 0.0 | 0.0 | 0.00 | 0.00 | 0.00 | 28 | 1015.6 |
| 20260503233828 | 79 | 207 | 0.0 | 0.0 | 0.00 | 0.00 | 0.00 | 29 | 1015.6 |
| 20260503233323 | 79 | 254 | 0.0 | 0.0 | 0.00 | 0.00 | 0.00 | 27 | 1015.6 |
| 20260503232820 | 80 | 261 | 0.0 | 0.0 | 0.00 | 0.00 | 0.00 | 26 | 1015.6 |
| 20260503232318 | 80 | 252 | 0.0 | 0.0 | 0.00 | 0.00 | 0.00 | 25 | 1015.6 |
| 20260503231815 | 80 | 124 | 0.0 | 0.0 | 0.00 | 0.00 | 0.00 | 24 | 1015.6 |
| 20260503231312 | 80 | 217 | 0.0 | 0.0 | 0.00 | 0.00 | 0.00 | 24 | 1015.6 |
| 20260503230808 | 80 | 256 | 0.0 | 0.0 | 0.00 | 0.00 | 0.00 | 24 | 1015.6 |
| 20260503230305 | 80 | 217 | 0.0 | 0.0 | 0.00 | 0.00 | 0.00 | 23 | 1015.3 |
| 20260503225803 | 80 | 236 | 0.0 | 0.0 | 0.00 | 0.00 | 0.00 | 23 | 1015.6 |
| 20260503225258 | 80 | 304 | 0.0 | 0.0 | 0.00 | 0.00 | 0.00 | 23 | 1015.6 |
| 20260503224755 | 80 | 199 | 0.0 | 0.0 | 0.00 | 0.00 | 0.00 | 24 | 1015.9 |
| 20260503224252 | 80 | 74 | 0.0 | 0.0 | 0.00 | 0.00 | 0.00 | 24 | 1015.9 |
| 20260503223750 | 80 | 206 | 0.0 | 0.0 | 0.00 | 0.00 | 0.00 | 23 | 1015.6 |
| 20260503223248 | 80 | 201 | 0.0 | 0.0 | 0.00 | 0.00 | 0.00 | 23 | 1015.6 |
| 20260503222743 | 80 | 88 | 0.0 | 0.0 | 0.00 | 0.00 | 0.00 | 24 | 1015.6 |
| 20260503222241 | 80 | 197 | 0.0 | 0.0 | 0.00 | 0.00 | 0.00 | 23 | 1015.9 |
| 20260503221740 | 80 | 199 | 0.0 | 0.0 | 0.00 | 0.00 | 0.00 | 24 | 1015.9 |
| 20260503221237 | 80 | 269 | 0.0 | 0.0 | 0.00 | 0.00 | 0.00 | 24 | 1015.9 |
| 20260503220733 | 80 | 206 | 0.0 | 0.0 | 0.00 | 0.00 | 0.00 | 22 | 1015.9 |
| 20260503220231 | 80 | 218 | 0.0 | 0.0 | 0.00 | 0.00 | 0.00 | 23 | 1015.9 |
| 20260503215727 | 80 | 215 | 0.0 | 0.0 | 0.00 | 0.00 | 0.00 | 22 | 1015.9 |
| 20260503215224 | 79 | 260 | 0.0 | 0.0 | 0.00 | 0.00 | 0.00 | 24 | 1015.9 |
| 20260503214723 | 79 | 351 | 0.0 | 0.0 | 0.00 | 0.00 | 0.00 | 23 | 1016.3 |
| 20260503214219 | 79 | 288 | 0.0 | 0.0 | 0.00 | 0.00 | 0.00 | 24 | 1016.3 |
| 20260503213717 | 80 | 35 | 3.0 | 5.0 | 0.00 | 0.00 | 0.00 | 24 | 1016.3 |
| 20260503213214 | 80 | 251 | 0.0 | 0.0 | 0.00 | 0.00 | 0.00 | 25 | 1016.3 |
| 20260503212711 | 79 | 308 | 4.0 | 5.0 | 0.00 | 0.00 | 0.00 | 23 | 1016.3 |
| 20260503212208 | 79 | 206 | 0.0 | 0.0 | 0.00 | 0.00 | 0.00 | 26 | 1016.3 |
| 20260503211706 | 79 | 313 | 1.0 | 2.0 | 0.00 | 0.00 | 0.00 | 24 | 1016.3 |
| 20260503211201 | 78 | 158 | 0.0 | 0.0 | 0.00 | 0.00 | 0.00 | 24 | 1016.3 |
| 20260503210658 | 77 | 135 | 0.0 | 0.0 | 0.00 | 0.00 | 0.00 | 23 | 1016.3 |
| 20260503210155 | 77 | 22 | 0.0 | 0.0 | 0.00 | 0.00 | 0.00 | 24 | 1016.6 |
| 20260503205650 | 77 | 111 | 0.0 | 0.0 | 0.00 | 0.00 | 0.00 | 23 | 1016.6 |
| 20260503205146 | 77 | 112 | 0.0 | 0.0 | 0.00 | 0.00 | 0.00 | 24 | 1017.0 |
| 20260503204643 | 77 | 127 | 0.0 | 0.0 | 0.00 | 0.00 | 0.00 | 24 | 1017.0 |
| 20260503204141 | 77 | 80 | 4.0 | 5.0 | 0.00 | 0.00 | 0.00 | 24 | 1017.0 |
| 20260503203638 | 77 | 34 | 0.0 | 0.0 | 0.00 | 0.00 | 0.00 | 24 | 1017.0 |
| 20260503203135 | 77 | 29 | 2.0 | 2.0 | 0.00 | 0.00 | 0.00 | 25 | 1017.3 |
| 20260503202632 | 77 | 57 | 3.0 | 5.0 | 0.00 | 0.00 | 0.00 | 25 | 1017.0 |
| 20260503202131 | 77 | 332 | 0.0 | 0.0 | 0.00 | 0.00 | 0.00 | 24 | 1017.3 |
| 20260503201628 | 77 | 142 | 0.0 | 0.0 | 0.00 | 0.00 | 0.00 | 25 | 1017.3 |
| 20260503201125 | 77 | 103 | 8.0 | 10.0 | 0.00 | 0.00 | 0.00 | 25 | 1017.6 |
| 20260503200621 | 77 | 75 | 3.0 | 5.0 | 0.00 | 0.00 | 0.00 | 25 | 1017.6 |
| 20260503200118 | 77 | 97 | 4.0 | 5.0 | 0.00 | 0.00 | 0.00 | 23 | 1017.6 |
| 20260503195615 | 77 | 226 | 0.0 | 0.0 | 0.00 | 0.00 | 0.00 | 24 | 1017.6 |
| 20260503195112 | 77 | 62 | 2.0 | 5.0 | 0.00 | 0.00 | 0.00 | 25 | 1017.6 |
| 20260503194604 | 77 | 335 | 0.0 | 0.0 | 0.00 | 0.00 | 0.00 | 25 | 1017.6 |
| 20260503194104 | 77 | 70 | 2.0 | 2.0 | 0.00 | 0.00 | 0.00 | 25 | 1018.0 |
| 20260503193601 | 77 | 101 | 7.0 | 8.0 | 0.00 | 0.00 | 0.00 | 26 | 1018.0 |
| 20260503193056 | 77 | 78 | 0.0 | 0.0 | 0.00 | 0.00 | 0.00 | 25 | 1018.0 |
| 20260503192552 | 77 | 1 | 2.0 | 5.0 | 0.00 | 0.00 | 0.00 | 25 | 1018.0 |
| 20260503192048 | 77 | 44 | 0.0 | 0.0 | 0.00 | 0.00 | 0.00 | 24 | 1018.3 |
| 20260503191545 | 78 | 76 | 4.0 | 5.0 | 0.00 | 0.00 | 0.00 | 24 | 1018.3 |
| 20260503191042 | 78 | 272 | 3.0 | 5.0 | 0.00 | 0.00 | 0.00 | 22 | 1018.3 |
| 20260503190539 | 77 | 259 | 4.0 | 8.0 | 0.00 | 0.00 | 0.00 | 24 | 1018.3 |
| 20260503190037 | 77 | 318 | 4.0 | 8.0 | 0.00 | 0.00 | 0.00 | 23 | 1018.3 |